This is the latest recevied weather packets stored in our database for station/object HG8LXL-2. If no packets are shown the sender has not sent any weather packets the latest 10 day(s).
| Time | Temp. | Humidity | Pressure | Rain* | Wind** | Luminosity | Snow |
|---|---|---|---|---|---|---|---|
| 1777454098 | 19.44° C | 12% | 1018.2 hPa | - | - | - | - |
| 1777453798 | 19.44° C | 12% | 1018.2 hPa | - | - | - | - |
| 1777453498 | 19.44° C | 12% | 1018.3 hPa | - | - | - | - |
| 1777453198 | 20° C | 13% | 1018.3 hPa | - | - | - | - |
| 1777452898 | 20° C | 13% | 1018.2 hPa | - | - | - | - |
| 1777452598 | 19.44° C | 13% | 1018.2 hPa | - | - | - | - |
| 1777452298 | 18.89° C | 14% | 1018.3 hPa | - | - | - | - |
| 1777451998 | 18.89° C | 14% | 1018.3 hPa | - | - | - | - |
| 1777451698 | 20.56° C | 13% | 1018.2 hPa | - | - | - | - |
| 1777451398 | 19.44° C | 13% | 1018.2 hPa | - | - | - | - |
| 1777451098 | 17.78° C | 15% | 1018.4 hPa | - | - | - | - |
| 1777450798 | 18.89° C | 13% | 1018.4 hPa | - | - | - | - |
| 1777450498 | 18.33° C | 13% | 1018.3 hPa | - | - | - | - |
| 1777450198 | 18.89° C | 13% | 1018.4 hPa | - | - | - | - |
| 1777449898 | 17.78° C | 14% | 1018.4 hPa | - | - | - | - |
| 1777449598 | 17.78° C | 14% | 1018.6 hPa | - | - | - | - |
| 1777449298 | 17.78° C | 14% | 1018.6 hPa | - | - | - | - |
| 1777448998 | 17.78° C | 14% | 1018.5 hPa | - | - | - | - |
| 1777448698 | 17.78° C | 14% | 1018.5 hPa | - | - | - | - |
| 1777448398 | 17.22° C | 15% | 1018.4 hPa | - | - | - | - |
| 1777448098 | 17.22° C | 16% | 1018.5 hPa | - | - | - | - |
| 1777447798 | 17.22° C | 16% | 1018.5 hPa | - | - | - | - |
| 1777447498 | 17.22° C | 17% | 1018.5 hPa | - | - | - | - |
| 1777447198 | 17.22° C | 16% | 1018.4 hPa | - | - | - | - |
| 1777446898 | 16.67° C | 17% | 1018.5 hPa | - | - | - | - |
* Rain since midnight (hover to see other rain measurements)
** Current wind speed in m/s (hover to see current wind gust speed)